Regional Weather Roundup
Issued by NWS Sterling, VA

Current Version | Previous Version | Text Only | Print | Product List | Glossary On
Versions: 1 2 3 4 5 6 7 8 9 10 11 12 13 14 15 16 17 18 19 20 21 22 23 24 25 26 27
000
ASUS41 KLWX 260910
RWRLWX

REGIONAL WEATHER ROUNDUP
NATIONAL WEATHER SERVICE BALTIMORE MD/WASHINGTON DC
500 AM EDT SUN MAR 26 2017

Note: "FAIR" indicates few or no clouds below 12,000 feet
with no significant weather and/or obstructions to visibility.
 TC=TEMPERATURE CELSIUS

 * =Non NWS site. Station does not report precipitation (e.g. rain,
    snow, etc.), thunder, or fog.

DCZ001-MDZ009-015-VAZ040>042-051-053>054-261000-
WASHINGTON METRO

CITY           SKY/WX    TMP DP  RH WIND       PRES   REMARKS
WASHINGTON NAT MOCLDY    50  43  77 E16       30.27R
DULLES         CLOUDY    49  41  74 E15       30.25R
ANDREWS AFB    CLOUDY    47  41  79 E13       30.25R
FT BELVOIR     CLOUDY    50  41  72 VRB7      30.26R
QUANTICO       CLOUDY    51  46  83 E12       30.26R
COLLEGE PARK*  CLOUDY    46  41  81 E6        30.28R
LEESBURG*      CLOUDY    50  45  81 NE10      30.27R
MANASSAS*        N/A     50  42  74 E7        30.25R

$$

MDZ006>007-011-014-261000-
BALTIMORE METRO

CITY           SKY/WX    TMP DP  RH WIND       PRES   REMARKS
BWI AIRPORT    CLOUDY    46  41  82 E16       30.29R
MD SCIENCE CTR   N/A     48  38  68 MISG      30.31R
MARTIN STATE   CLOUDY    46  43  87 NE7       30.32S
ANNAPOLIS      PTCLDY    49  43  80 E10       30.28S
FORT MEADE*    CLOUDY    45  39  81 E9        30.30S

$$

MDZ012-015-019>023-261000-
MARYLAND EASTERN SHORE

CITY           SKY/WX    TMP DP  RH WIND       PRES   REMARKS
OCEAN CITY     FOG       45  44  97 NE9G17    30.28R VSB 1
SALISBURY      CLOUDY    46  46 100 E13       30.27R
BAY BRIDGE AP* CLOUDY    48  43  81 E9        30.29R
CAMBRIDGE*     CLOUDY    46  45  93 E10       30.27R
EASTON*        CLOUDY    48  43  82 E10G16    30.32R

$$

MDZ017>025-261000-
SOUTHERN MARYLAND

CITY           SKY/WX    TMP DP  RH WIND       PRES   REMARKS
PATUXENT RIVER CLOUDY    48  47  96 E9        30.25R
ST INIGOES     MOCLDY    48  45  89 NE13      30.24R
LEONARDTOWN*   CLOUDY    46  43  87 NE3       30.26S

$$

MDZ003>005-261000-
NORTH CENTRAL MARYLAND

CITY           SKY/WX    TMP DP  RH WIND       PRES   REMARKS
FREDERICK*     CLOUDY    50  45  81 E8        30.31R
HAGERSTOWN APT CLOUDY    48  41  76 E10       30.25R
WESTMINSTER*   CLOUDY    46  43  87 E7        30.28R

$$

MDZ501>502-261000-
WESTERN MARYLAND

CITY           SKY/WX    TMP DP  RH WIND       PRES   REMARKS
OAKLAND*       CLEAR     46  45  93 SE13      30.15F
CUMBERLAND*    MOCLDY    54  46  76 NE7       30.24S

$$

VAZ025>031-261000-
SHENANDOAH VALLEY

CITY           SKY/WX    TMP DP  RH WIND       PRES   REMARKS
WINCHESTER*    CLOUDY    50  43  76 NE3       30.22R
FRONT ROYAL*   CLOUDY    52  46  82 E9G17     30.18R
LURAY*         CLEAR     54  52  94 N6        30.16S
NEW MARKET*    CLEAR     50  46  88 N6        30.16S
STAUNTON*      CLEAR     45  42  91 CALM      30.18R
WAYNESBORO*    CLEAR     53  48  83 E7        30.16S

$$

WVZ021-048>050-054>055-261000-
EASTERN WEST VIRGINIA PANHANDLE

CITY           SKY/WX    TMP DP  RH WIND       PRES   REMARKS
MARTINSBURG    MOCLDY    51  43  74 E6        30.24R
PETERSBURG*    CLEAR     51  49  94 CALM      30.17S

$$

VAZ036>039-050-261000-
CENTRAL FOOTHILLS

CITY           SKY/WX    TMP DP  RH WIND       PRES   REMARKS
CHARLOTTESVILL CLEAR     58  50  75 CALM      30.17R
CULPEPER*      CLOUDY    55  46  73 NE6       30.23R
ORANGE*        PTCLDY    48  46  93 CALM      30.20R
GORDONSVILLE*  CLEAR     48  47  96 CALM      30.18R
WARRENTON*     CLOUDY    54  42  65 NE10      30.23R

$$

VAZ055>057-261000-
NORTH AND CENTRAL PIEDMONT

CITY           SKY/WX    TMP DP  RH WIND       PRES   REMARKS
FREDERICKSBRG* CLOUDY    52  46  80 NE10      30.22R
STAFFORD*      CLOUDY    51  45  78 NE12      30.27R

$$

NCZ024-NYZ072-PAZ021-071-VAZ022-071-261000-
OTHER REGIONAL OBSERVATIONS

CITY           SKY/WX    TMP DP  RH WIND       PRES   REMARKS
NEW YORK CITY  LGT RAIN  38  35  89 VRB7      30.43S
PHILADELPHIA   CLOUDY    44  38  79 E10G21    30.36S
PITTSBURGH     CLOUDY    58  51  78 E8        30.08F
ROANOKE        PTCLDY    57  47  69 SE6       30.17R
RICHMOND       PTCLDY    58  51  78 CALM      30.19S
RALEIGH        PTCLDY    56  51  84 CALM      30.20S

$$

ANZ530>537-261000-
MARINE OBSERVATIONS

STATION/POSITION TIME  TEMP    WIND        PRES
                       AIR SEA DIR/SP/G
                 (UTC) (F)     (DEG/KT/KT) (MB)
THOMAS PT LIGHT  0900   47 45   80/ 11/ 14   N/A
BALT KEY BRIDGE  0848   46      60/ 11/ 13 1025.9R
COVE POINT       0848   47      80/  9/ 11 1025.1R
LEWISETTA        0848   48 51   70/ 12/ 14 1023.7R
SOLOMONS ISLAND  0848   48 47   60/  7/  8   N/A
PINEY POINT      0848           90/ 10/ 12   N/A

$$





USA.gov is the U.S. government's official web portal to all federal, state and local government web resources and services.